Orbital elements:
2015 XA378 Earth MOID = 0.0002 AU
Epoch 2016 Jan. 13.0 TT = JDT 2457400.5 MPC
M 351.46271 (2000.0) P Q
n 0.39409201 Peri. 92.12804 -0.97285523 -0.23138304
a 1.8424864 Node 74.49346 +0.21071221 -0.89252555
e 0.6422024 Incl. 0.22708 +0.09567163 -0.38711759
P 2.50 H 25.7 G 0.15 U 6